Volver al catálogo

ONEWEB-0608

ActivoComunicacionesPO
NORAD 54672·PAYLOAD·🇬🇧 United Kingdom

Lanzado Dec 8, 2022 desde Cape Canaveral Space Force Station

Loading…

Próximos Pases (próximas 24 horas)

TLE

ActualizadoSource: CelesTrak SupGP

Época: Sep 14, 2026, 13:17 UTC

1 54672C 22166AG  26257.55398565 -.00001273  00000+0 -30863-2 0  2572
2 54672  87.9283 226.1847 0002389  94.6509  17.8361 13.21828017    18

Sigue ONEWEB-0608 en tiempo real con AllMySat

Download on the App Store